This is the latest recevied weather packets stored in our database for station/object OK2JCZ-6. If no packets are shown the sender has not sent any weather packets the latest 10 day(s).
| Time | Temp. | Humidity | Pressure | Rain* | Wind** | Luminosity | Snow |
|---|---|---|---|---|---|---|---|
| 1776997773 | 3.89° C | 57% | 1017.4 hPa | 0 mm | - | - | - |
| 1776996577 | 4.44° C | 58% | 1017.5 hPa | 0 mm | - | - | - |
| 1776996273 | 5° C | 58% | 1017.5 hPa | 0 mm | - | - | - |
| 1776995074 | 4.44° C | 59% | 1017.7 hPa | 0 mm | - | - | - |
| 1776994173 | 4.44° C | 58% | 1017.7 hPa | 0 mm | - | - | - |
| 1776993273 | 4.44° C | 58% | 1017.9 hPa | 0 mm | - | - | - |
| 1776992973 | 4.44° C | 58% | 1018 hPa | 0 mm | - | - | - |
| 1776992673 | 4.44° C | 57% | 1018 hPa | 0 mm | - | - | - |
| 1776992073 | 5° C | 56% | 1018.1 hPa | 0 mm | - | - | - |
| 1776990573 | 4.44° C | 57% | 1018 hPa | 0 mm | - | - | - |
| 1776989673 | 4.44° C | 56% | 1018.1 hPa | 0 mm | - | - | - |
| 1776989373 | 4.44° C | 55% | 1018.2 hPa | 0 mm | - | - | - |
| 1776988473 | 3.89° C | 56% | 1018.3 hPa | 0 mm | - | - | - |
| 1776988173 | 3.89° C | 55% | 1018.4 hPa | 0 mm | - | - | - |
| 1776987873 | 3.33° C | 54% | 1018.4 hPa | 0 mm | - | - | - |
| 1776987575 | 3.33° C | 54% | 1018.4 hPa | 0 mm | - | - | - |
| 1776987273 | 3.89° C | 53% | 1018.5 hPa | 0 mm | - | - | - |
| 1776986973 | 3.89° C | 52% | 1018.5 hPa | 0 mm | - | - | - |
| 1776985775 | 3.89° C | 43% | 1018.4 hPa | 0 mm | - | - | - |
| 1776984873 | 5° C | 50% | 1018.4 hPa | 0 mm | - | - | - |
| 1776984573 | 5° C | 49% | 1018.3 hPa | 0 mm | - | - | - |
| 1776983975 | 5° C | 49% | 1018.2 hPa | 0 mm | - | - | - |
| 1776983673 | 5.56° C | 49% | 1018.2 hPa | 0 mm | - | - | - |
| 1776983373 | 5.56° C | 48% | 1018.2 hPa | 0 mm | - | - | - |
| 1776983073 | 5.56° C | 48% | 1018.2 hPa | 0 mm | - | - | - |
* Rain latest hour (hover to see other rain measurements)
** Current wind speed in m/s (hover to see current wind gust speed)